Reno - Stead, NV

11:46 AM PST on December 17, 2017 (GMT -0800)
Reno - Stead

Weather History for KRTS - November, 2011

Change the Weather History Date:

Sunday, November 20, 2011

  Actual Average (KRNO) Record (KRNO)
Temperature  
Mean Temperature 29 °F -  
Max Temperature 35 °F 53 °F 72 °F (1932)
Min Temperature 23 °F 23 °F 7 °F (1977)
Degree Days  
Heating Degree Days 36    
Moisture  
Dew Point 26 °F    
Average Humidity 83    
Maximum Humidity 100    
Minimum Humidity 69    
Precipitation  
Precipitation 0.00 in - - ()
Sea Level Pressure  
Sea Level Pressure 29.86 in    
Wind  
Wind Speed 4 mph ()    
Max Wind Speed 9 mph    
Max Gust Speed -    
Visibility 8.7 miles    
Events Fog , Snow    
Averages and records for this station are not official NWS values.
T = Trace of Precipitation, MM = Missing Value Source: Averaged Metar Reports

Daily Weather History Graph

Daily Weather History Graph

Search for Another Location

Airport or City:

Trip Planner

Search our weather history database for the weather conditions in past years. The results will help you decide how hot, cold, wet, or windy it might be!

Date:

Astronomy

Nov. 20, 2011 Rise Set
Actual Time 6:49 AM PST 4:40 PM PST
Civil Twilight 6:20 AM PST 5:09 PM PST
Nautical Twilight 5:47 AM PST 5:42 PM PST
Astronomical Twilight 5:15 AM PST 6:14 PM PST
Moon 1:24 AM PST (11/20) 1:31 PM PST (11/20)
Length of Visible Light 10h 49m
Length of Day
9h 51m
Waning Crescent, 26% of the Moon is Illuminated
Nov 20
Waning Crescent
Nov 24
New
Dec 2
First Quarter
Dec 10
Full
Dec 17
Last Quarter

Hourly Weather History & Observations

Time (PST) Temp. Windchill Dew Point Humidity Pressure Visibility Wind Dir Wind Speed Gust Speed Precip Events Conditions
12:15 AM 26.6 °F - 19.4 °F 74% 29.77 in 10.0 mi Calm Calm - N/A   Overcast
12:35 AM 26.6 °F 19.1 °F 17.6 °F 69% 29.75 in 10.0 mi East 6.9 mph - N/A   Overcast
12:50 AM 26.6 °F 20.0 °F 17.6 °F 69% 29.75 in 10.0 mi East 5.8 mph - N/A   Overcast
1:15 AM 28.4 °F 21.2 °F 19.4 °F 69% 29.75 in 10.0 mi East 6.9 mph - N/A   Overcast
1:35 AM 28.4 °F 21.2 °F 19.4 °F 69% 29.75 in 10.0 mi East 6.9 mph - N/A   Overcast
1:55 AM 28.4 °F 22.2 °F 19.4 °F 69% 29.75 in 10.0 mi ESE 5.8 mph - N/A   Overcast
2:15 AM 28.4 °F 24.6 °F 19.4 °F 69% 29.75 in 10.0 mi ESE 3.5 mph - N/A   Overcast
2:30 AM 30.2 °F 25.4 °F 21.2 °F 69% 29.75 in 10.0 mi ESE 4.6 mph - N/A   Overcast
2:55 AM 30.2 °F 25.4 °F 23.0 °F 75% 29.74 in 7.0 mi East 4.6 mph - N/A Snow Light Snow
3:15 AM 28.4 °F 24.6 °F 23.0 °F 80% 29.74 in 9.0 mi East 3.5 mph - N/A Snow Light Snow
3:35 AM 28.4 °F 24.6 °F 23.0 °F 80% 29.74 in 10.0 mi East 3.5 mph - N/A   Overcast
3:55 AM 28.4 °F 22.2 °F 23.0 °F 80% 29.73 in 10.0 mi ENE 5.8 mph - N/A   Overcast
4:15 AM 28.4 °F - 23.0 °F 80% 29.74 in 10.0 mi Calm Calm - N/A   Overcast
4:35 AM 28.4 °F 23.3 °F 23.0 °F 80% 29.74 in 10.0 mi East 4.6 mph - N/A   Overcast
4:55 AM 28.4 °F 23.3 °F 24.8 °F 86% 29.74 in 10.0 mi East 4.6 mph - N/A   Overcast
5:15 AM 28.4 °F 22.2 °F 24.8 °F 86% 29.74 in 10.0 mi East 5.8 mph - N/A   Overcast
5:35 AM 28.4 °F 23.3 °F 24.8 °F 86% 29.76 in 10.0 mi ESE 4.6 mph - N/A   Overcast
5:55 AM 28.4 °F 21.2 °F 24.8 °F 86% 29.75 in 10.0 mi East 6.9 mph - N/A   Overcast
6:10 AM 28.4 °F 22.2 °F 24.8 °F 86% 29.76 in 10.0 mi East 5.8 mph - N/A   Overcast
6:35 AM 30.2 °F 24.3 °F 24.8 °F 80% 29.77 in 10.0 mi East 5.8 mph - N/A   Overcast
7:15 AM 32.0 °F 27.5 °F 24.8 °F 75% 29.79 in 9.0 mi East 4.6 mph - N/A   Overcast
7:30 AM 30.2 °F - 24.8 °F 80% 29.80 in 10.0 mi Calm Calm - N/A   Mostly Cloudy
7:50 AM 30.2 °F - 24.8 °F 80% 29.80 in 10.0 mi Calm Calm - N/A   Mostly Cloudy
8:10 AM 32.0 °F 28.7 °F 24.8 °F 75% 29.81 in 5.0 mi NE 3.5 mph - N/A Snow Light Snow
8:50 AM 32.0 °F 25.6 °F 26.6 °F 80% 29.83 in 4.0 mi East 6.9 mph - N/A Snow Light Snow
9:10 AM 30.2 °F 23.4 °F 26.6 °F 86% 29.84 in 2.0 mi East 6.9 mph - N/A Snow Light Snow
9:30 AM 30.2 °F 24.3 °F 26.6 °F 86% 29.85 in 4.0 mi ENE 5.8 mph - N/A Snow Light Snow
9:50 AM 32.0 °F 27.5 °F 26.6 °F 80% 29.86 in 4.0 mi ENE 4.6 mph - N/A Snow Light Snow
10:10 AM 32.0 °F 27.5 °F 26.6 °F 80% 29.86 in 7.0 mi East 4.6 mph - N/A   Clear
10:30 AM 32.0 °F 27.5 °F 26.6 °F 80% 29.86 in 10.0 mi SSE 4.6 mph - N/A   Scattered Clouds
10:50 AM 33.8 °F 27.7 °F 26.6 °F 75% 29.87 in 10.0 mi SSE 6.9 mph - N/A   Scattered Clouds
11:10 AM 33.8 °F 30.8 °F 26.6 °F 75% 29.87 in 10.0 mi SSE 3.5 mph - N/A   Mostly Cloudy
11:30 AM 35.6 °F - 26.6 °F 70% 29.86 in 10.0 mi Calm Calm - N/A   Mostly Cloudy
12:10 PM 35.6 °F 31.7 °F 26.6 °F 70% 29.87 in 10.0 mi ESE 4.6 mph - N/A   Overcast
12:35 PM 35.6 °F - 26.6 °F 70% 29.87 in 10.0 mi Calm Calm - N/A   Overcast
12:50 PM 35.6 °F - 26.6 °F 70% 29.87 in 6.0 mi Calm Calm - N/A   Mostly Cloudy
1:10 PM 33.8 °F 30.8 °F 28.4 °F 81% 29.88 in 1.2 mi SE 3.5 mph - N/A Snow Light Snow
1:50 PM 33.8 °F - 30.2 °F 87% 29.89 in 9.0 mi Calm Calm - N/A Snow Light Snow
2:10 PM 35.6 °F 31.7 °F 32.0 °F 87% 29.89 in 10.0 mi East 4.6 mph - N/A   Overcast
2:30 PM 35.6 °F 31.7 °F 32.0 °F 87% 29.90 in 10.0 mi ESE 4.6 mph - N/A   Mostly Cloudy
2:55 PM 35.6 °F 32.8 °F 28.4 °F 75% 29.90 in 10.0 mi SE 3.5 mph - N/A   Clear
3:10 PM 35.6 °F - 28.4 °F 75% 29.90 in 10.0 mi Calm Calm - N/A   Mostly Cloudy
3:35 PM 35.6 °F 31.7 °F 30.2 °F 81% 29.90 in 10.0 mi SE 4.6 mph - N/A   Overcast
3:55 PM 35.6 °F - 30.2 °F 81% 29.90 in 10.0 mi Calm Calm - N/A   Overcast
4:10 PM 35.6 °F 32.8 °F 30.2 °F 81% 29.91 in 10.0 mi ENE 3.5 mph - N/A   Overcast
4:30 PM 33.8 °F 30.8 °F 30.2 °F 87% 29.91 in 10.0 mi East 3.5 mph - N/A   Mostly Cloudy
4:50 PM 32.0 °F 26.4 °F 30.2 °F 93% 29.91 in 10.0 mi SE 5.8 mph - N/A   Scattered Clouds
5:10 PM 32.0 °F 24.2 °F 30.2 °F 93% 29.91 in 10.0 mi ESE 9.2 mph - N/A   Overcast
5:30 PM 32.0 °F - 28.4 °F 87% 29.93 in 10.0 mi Calm Calm - N/A   Overcast
5:50 PM 32.0 °F 28.7 °F 28.4 °F 87% 29.93 in 10.0 mi SSW 3.5 mph - N/A   Overcast
6:10 PM 32.0 °F - 28.4 °F 87% 29.94 in 10.0 mi Calm Calm - N/A   Overcast
6:30 PM 30.2 °F 25.4 °F 28.4 °F 93% 29.94 in 10.0 mi SE 4.6 mph - N/A   Overcast
6:50 PM 28.4 °F 24.6 °F 26.6 °F 93% 29.94 in 10.0 mi ESE 3.5 mph - N/A   Partly Cloudy
7:10 PM 26.6 °F 22.6 °F 24.8 °F 93% 29.95 in 10.0 mi NNW 3.5 mph - N/A   Clear
7:30 PM 24.8 °F 20.5 °F 23.0 °F 93% 29.96 in 10.0 mi North 3.5 mph - N/A   Clear
7:55 PM 23.0 °F 17.0 °F 23.0 °F 100% 29.97 in 0.8 mi NW 4.6 mph - N/A   Mist
8:10 PM 23.0 °F 17.0 °F 21.2 °F 93% 29.97 in 0.2 mi NNW 4.6 mph - N/A Fog Light Freezing Fog
8:30 PM 24.8 °F 19.1 °F 24.8 °F 100% 29.97 in 0.2 mi NNW 4.6 mph - N/A Fog Light Freezing Fog
8:55 PM 26.6 °F - 24.8 °F 93% 29.98 in 9.0 mi Calm Calm - N/A   Overcast
9:10 PM 26.6 °F - 26.6 °F 100% 29.98 in 10.0 mi Calm Calm - N/A   Overcast
9:30 PM 28.4 °F 24.6 °F 26.6 °F 93% 30.00 in 6.0 mi WNW 3.5 mph - N/A   Overcast
9:50 PM 28.4 °F 24.6 °F 26.6 °F 93% 30.01 in 10.0 mi NNW 3.5 mph - N/A   Overcast
10:30 PM 28.4 °F - 28.4 °F 100% 30.01 in 9.0 mi Calm Calm - N/A   Overcast
10:50 PM 30.2 °F - 28.4 °F 93% 30.01 in 10.0 mi Calm Calm - N/A   Overcast
11:10 PM 28.4 °F - 28.4 °F 100% 30.01 in 10.0 mi Calm Calm - N/A   Overcast
11:30 PM 30.2 °F 25.4 °F 28.4 °F 93% 30.02 in 10.0 mi WNW 4.6 mph - N/A   Overcast
11:50 PM 30.2 °F 26.7 °F 28.4 °F 93% 30.02 in 10.0 mi NNW 3.5 mph - N/A   Overcast